Location: Casa Rossa
(45.2389°N, 12.2056°E)
Time: 03:42:00
(UTC+00:00)

ADEOS II - Pass Details

Date: 14 July 2020
Orbit: 799 x 801 km, 98.5° (Epoch: 11 August)

Event Time Altitude Azimuth Distance (km) Brightness Sun altitude
Rises 02:57:36 0° 2° (N) 3,321 6.0 -6.5°
Reaches altitude 10° 03:00:25 10° 347° (NNW) 2,386 4.9 -6.1°
Maximum altitude 03:04:20 22° 299° (WNW) 1,699 3.6 -5.6°
Drops below altitude 10° 03:08:15 10° 250° (WSW) 2,374 3.9 -5.0°
Enters shadow 03:09:33 - 242° (WSW) 2,780 4.2 -4.8°
